{"data":{"norad_id":62594,"epoch":"2026-07-07T05:15:47.007648Z","epoch_age_seconds":6675595,"freshness":"OLD","line1":"1 62594U 25008H   26188.21929407  .12173371  88691-5  33308-2 0  9991","line2":"2 62594  42.9747 113.8100 0013325 215.0945 144.9066 16.26790110 86046","mean_motion":16.2679011,"eccentricity":0.0013325,"inclination_deg":42.9747,"raan_deg":113.81,"arg_perigee_deg":215.0945,"mean_anomaly_deg":144.9066,"bstar":0.0033308,"rev_number":8604,"period_min":88.517872782003,"perigee_km":192.41327051363,"apogee_km":209.94715088014,"semimajor_km":6579.3172106969,"source":"CELESTRAK","updated_at":"2026-07-08T09:00:54.916404Z"}}